Time,TemperatureF,DewpointF,PressureIn,WindDirection,WindDirectionDegrees,WindSpeedMPH,WindSpeedGustMPH,Humidity,HourlyPrecipIn,Conditions,Clouds,dailyrainin,SoftwareType,DateUTC
2013-01-15 00:04:00,39.0,34.0,-100.00,North,0,4.0,7.0,81,-99.99,,,-99.99,,2013-01-15 05:04:00,
2013-01-15 00:12:00,39.0,33.0,-100.00,NNW,330,3.0,7.0,81,-99.99,,,-99.99,,2013-01-15 05:12:00,
2013-01-15 00:22:00,39.0,33.0,-100.00,NNW,330,3.0,7.0,81,-99.99,,,-99.99,,2013-01-15 05:22:00,
2013-01-15 00:33:00,39.0,33.0,-100.00,North,0,2.0,7.0,81,-99.99,,,-99.99,,2013-01-15 05:33:00,
2013-01-15 00:42:00,39.0,34.0,-100.00,North,0,4.0,6.0,82,-99.99,,,-99.99,,2013-01-15 05:42:00,
2013-01-15 00:52:00,39.0,34.0,-100.00,North,0,4.0,6.0,82,-99.99,,,-99.99,,2013-01-15 05:52:00,
2013-01-15 01:03:00,39.0,34.0,-100.00,NNE,25,3.0,8.0,82,-99.99,,,-99.99,,2013-01-15 06:03:00,
2013-01-15 01:12:00,38.0,33.0,-100.00,North,5,6.0,9.0,81,-99.99,,,-99.99,,2013-01-15 06:12:00,
2013-01-15 01:22:00,38.0,33.0,-100.00,North,5,6.0,9.0,81,-99.99,,,-99.99,,2013-01-15 06:22:00,
2013-01-15 01:33:00,38.0,32.0,-100.00,North,0,8.0,10.0,80,-99.99,,,-99.99,,2013-01-15 06:33:00,
2013-01-15 01:43:00,38.0,32.0,-100.00,North,0,3.0,11.0,81,-99.99,,,-99.99,,2013-01-15 06:43:00,
2013-01-15 01:52:00,38.0,32.0,-100.00,North,0,3.0,11.0,81,-99.99,,,-99.99,,2013-01-15 06:52:00,
2013-01-15 02:02:00,37.0,32.0,-100.00,North,5,6.0,12.0,83,-99.99,,,-99.99,,2013-01-15 07:02:00,
2013-01-15 02:12:00,36.0,32.0,-100.00,North,10,4.0,12.0,84,-99.99,,,-99.99,,2013-01-15 07:12:00,
2013-01-15 02:22:00,36.0,32.0,-100.00,North,10,4.0,12.0,84,-99.99,,,-99.99,,2013-01-15 07:22:00,
2013-01-15 02:33:00,36.0,32.0,-100.00,North,0,4.0,8.0,86,-99.99,,,-99.99,,2013-01-15 07:33:00,
2013-01-15 02:42:00,36.0,32.0,-100.00,NNW,340,5.0,7.0,86,-99.99,,,-99.99,,2013-01-15 07:42:00,
2013-01-15 02:52:00,36.0,32.0,-100.00,NNW,340,5.0,7.0,86,-99.99,,,-99.99,,2013-01-15 07:52:00,
2013-01-15 03:12:00,35.0,32.0,-100.00,NNE,30,4.0,11.0,87,-99.99,,,-99.99,,2013-01-15 08:12:00,
2013-01-15 03:22:00,35.0,32.0,-100.00,NNE,30,4.0,11.0,87,-99.99,,,-99.99,,2013-01-15 08:22:00,
2013-01-15 03:33:00,35.0,32.0,-100.00,NE,40,4.0,10.0,88,-99.99,,,-99.99,,2013-01-15 08:33:00,
2013-01-15 03:43:00,35.0,32.0,-100.00,North,10,4.0,11.0,88,-99.99,,,-99.99,,2013-01-15 08:43:00,
2013-01-15 03:52:00,35.0,32.0,-100.00,North,10,4.0,11.0,88,-99.99,,,-99.99,,2013-01-15 08:52:00,
2013-01-15 04:02:00,35.0,32.0,-100.00,ENE,65,2.0,7.0,88,-99.99,,,-99.99,,2013-01-15 09:02:00,
2013-01-15 04:12:00,35.0,32.0,-100.00,NNE,20,5.0,6.0,88,-99.99,,,-99.99,,2013-01-15 09:12:00,
2013-01-15 04:22:00,35.0,32.0,-100.00,NNE,20,5.0,6.0,88,-99.99,,,-99.99,,2013-01-15 09:22:00,
2013-01-15 11:03:00,36.0,23.0,-100.00,North,0,6.0,10.0,58,-99.99,,,-99.99,,2013-01-15 16:03:00,
2013-01-15 11:12:00,36.0,23.0,-100.00,North,5,7.0,11.0,58,-99.99,,,-99.99,,2013-01-15 16:12:00,
2013-01-15 11:23:00,36.0,23.0,-100.00,North,5,7.0,11.0,58,-99.99,,,-99.99,,2013-01-15 16:23:00,
2013-01-15 11:33:00,36.0,22.0,-100.00,North,0,6.0,10.0,57,-99.99,,,-99.99,,2013-01-15 16:33:00,
2013-01-15 11:43:00,36.0,22.0,-100.00,North,350,7.0,12.0,56,-99.99,,,-99.99,,2013-01-15 16:43:00,
2013-01-15 11:53:00,36.0,22.0,-100.00,North,350,7.0,12.0,56,-99.99,,,-99.99,,2013-01-15 16:53:00,
2013-01-15 12:13:00,36.0,22.0,-100.00,North,350,9.0,11.0,55,-99.99,,,-99.99,,2013-01-15 17:13:00,
2013-01-15 12:23:00,36.0,22.0,-100.00,North,350,9.0,11.0,55,-99.99,,,-99.99,,2013-01-15 17:23:00,
2013-01-15 12:33:00,37.0,22.0,-100.00,NNE,15,5.0,9.0,54,-99.99,,,-99.99,,2013-01-15 17:33:00,
2013-01-15 12:43:00,37.0,22.0,-100.00,North,0,6.0,11.0,54,-99.99,,,-99.99,,2013-01-15 17:43:00,
2013-01-15 12:53:00,37.0,22.0,-100.00,North,0,6.0,11.0,54,-99.99,,,-99.99,,2013-01-15 17:53:00,
2013-01-15 13:13:00,37.0,22.0,-100.00,North,0,6.0,9.0,55,-99.99,,,-99.99,,2013-01-15 18:13:00,
2013-01-15 13:23:00,37.0,22.0,-100.00,North,0,6.0,9.0,55,-99.99,,,-99.99,,2013-01-15 18:23:00,
2013-01-15 13:33:00,37.0,22.0,-100.00,North,350,6.0,10.0,54,-99.99,,,-99.99,,2013-01-15 18:33:00,
2013-01-15 13:43:00,36.0,21.0,-100.00,North,0,6.0,10.0,54,-99.99,,,-99.99,,2013-01-15 18:43:00,
2013-01-15 13:53:00,36.0,21.0,-100.00,North,0,6.0,10.0,54,-99.99,,,-99.99,,2013-01-15 18:53:00,
2013-01-15 14:03:00,37.0,22.0,-100.00,North,0,4.0,10.0,53,-99.99,,,-99.99,,2013-01-15 19:03:00,
2013-01-15 14:13:00,37.0,21.0,-100.00,North,355,7.0,11.0,52,-99.99,,,-99.99,,2013-01-15 19:13:00,
2013-01-15 14:23:00,37.0,21.0,-100.00,North,355,7.0,11.0,52,-99.99,,,-99.99,,2013-01-15 19:23:00,
2013-01-15 14:33:00,37.0,21.0,-100.00,North,0,5.0,10.0,52,-99.99,,,-99.99,,2013-01-15 19:33:00,
2013-01-15 14:43:00,37.0,21.0,-100.00,North,355,5.0,12.0,51,-99.99,,,-99.99,,2013-01-15 19:43:00,
2013-01-15 14:53:00,37.0,21.0,-100.00,North,355,5.0,12.0,51,-99.99,,,-99.99,,2013-01-15 19:53:00,
2013-01-15 15:12:00,37.0,21.0,-100.00,North,0,7.0,10.0,52,-99.99,,,-99.99,,2013-01-15 20:12:00,
2013-01-15 15:23:00,37.0,21.0,-100.00,North,0,7.0,10.0,52,-99.99,,,-99.99,,2013-01-15 20:23:00,
2013-01-15 15:33:00,37.0,21.0,-100.00,North,0,8.0,13.0,52,-99.99,,,-99.99,,2013-01-15 20:33:00,
2013-01-15 15:43:00,37.0,21.0,-100.00,North,0,5.0,11.0,52,-99.99,,,-99.99,,2013-01-15 20:43:00,
2013-01-15 15:53:00,37.0,21.0,-100.00,North,0,5.0,11.0,52,-99.99,,,-99.99,,2013-01-15 20:53:00,
2013-01-15 16:03:00,37.0,21.0,-100.00,NNW,340,5.0,9.0,52,-99.99,,,-99.99,,2013-01-15 21:03:00,
2013-01-15 16:13:00,37.0,22.0,-100.00,NNE,20,4.0,10.0,53,-99.99,,,-99.99,,2013-01-15 21:13:00,
2013-01-15 16:23:00,37.0,22.0,-100.00,NNE,20,4.0,10.0,53,-99.99,,,-99.99,,2013-01-15 21:23:00,
2013-01-15 16:34:00,37.0,22.0,-100.00,NNW,345,5.0,10.0,53,-99.99,,,-99.99,,2013-01-15 21:34:00,
2013-01-15 16:43:00,37.0,21.0,-100.00,NNW,345,8.0,13.0,53,-99.99,,,-99.99,,2013-01-15 21:43:00,
2013-01-15 16:53:00,37.0,21.0,-100.00,NNW,345,8.0,13.0,53,-99.99,,,-99.99,,2013-01-15 21:53:00,
2013-01-15 17:03:00,37.0,21.0,-100.00,North,0,5.0,11.0,53,-99.99,,,-99.99,,2013-01-15 22:03:00,
2013-01-15 17:12:00,37.0,21.0,-100.00,NNE,15,2.0,7.0,53,-99.99,,,-99.99,,2013-01-15 22:12:00,
2013-01-15 17:23:00,37.0,21.0,-100.00,NNE,15,2.0,7.0,53,-99.99,,,-99.99,,2013-01-15 22:23:00,
2013-01-15 17:33:00,36.0,21.0,-100.00,North,355,5.0,10.0,53,-99.99,,,-99.99,,2013-01-15 22:33:00,
2013-01-15 17:43:00,36.0,21.0,-100.00,North,355,5.0,10.0,53,-99.99,,,-99.99,,2013-01-15 22:43:00,
2013-01-15 17:53:00,36.0,21.0,-100.00,North,355,5.0,8.0,54,-99.99,,,-99.99,,2013-01-15 22:53:00,
2013-01-15 18:13:00,36.0,21.0,-100.00,North,0,4.0,8.0,54,-99.99,,,-99.99,,2013-01-15 23:13:00,
2013-01-15 18:23:00,36.0,21.0,-100.00,North,0,4.0,8.0,54,-99.99,,,-99.99,,2013-01-15 23:23:00,
2013-01-15 18:33:00,36.0,21.0,-100.00,North,355,5.0,8.0,54,-99.99,,,-99.99,,2013-01-15 23:33:00,
2013-01-15 18:43:00,36.0,21.0,-100.00,North,355,5.0,8.0,54,-99.99,,,-99.99,,2013-01-15 23:43:00,
2013-01-15 19:03:00,-999.0,-99.9,-100.00,North,0,5.0,8.0,54,-99.99,,,-99.99,,2013-01-16 00:03:00,
2013-01-15 19:13:00,36.0,21.0,-100.00,North,5,5.0,9.0,54,-99.99,,,-99.99,,2013-01-16 00:13:00,
2013-01-15 19:23:00,36.0,21.0,-100.00,North,5,5.0,9.0,54,-99.99,,,-99.99,,2013-01-16 00:23:00,
2013-01-15 19:33:00,36.0,21.0,-100.00,North,0,4.0,11.0,54,-99.99,,,-99.99,,2013-01-16 00:33:00,
2013-01-15 19:43:00,36.0,21.0,-100.00,North,350,5.0,6.0,54,-99.99,,,-99.99,,2013-01-16 00:43:00,
2013-01-15 19:52:00,36.0,21.0,-100.00,North,350,5.0,6.0,54,-99.99,,,-99.99,,2013-01-16 00:52:00,
2013-01-15 20:03:00,36.0,21.0,-100.00,North,0,6.0,8.0,54,-99.99,,,-99.99,,2013-01-16 01:03:00,
2013-01-15 20:12:00,36.0,21.0,-100.00,North,355,4.0,8.0,54,-99.99,,,-99.99,,2013-01-16 01:12:00,
2013-01-15 20:23:00,36.0,21.0,-100.00,North,355,4.0,8.0,54,-99.99,,,-99.99,,2013-01-16 01:23:00,
2013-01-15 20:33:00,36.0,21.0,-100.00,NNE,25,3.0,6.0,55,-99.99,,,-99.99,,2013-01-16 01:33:00,
2013-01-15 20:43:00,36.0,22.0,-100.00,East,90,2.0,7.0,55,-99.99,,,-99.99,,2013-01-16 01:43:00,
2013-01-15 20:52:00,36.0,22.0,-100.00,East,90,2.0,7.0,55,-99.99,,,-99.99,,2013-01-16 01:52:00,
2013-01-15 21:03:00,36.0,21.0,-100.00,ENE,70,1.0,4.0,55,-99.99,,,-99.99,,2013-01-16 02:03:00,
2013-01-15 21:12:00,36.0,22.0,-100.00,NNE,30,2.0,3.0,55,-99.99,,,-99.99,,2013-01-16 02:12:00,
2013-01-15 21:23:00,36.0,22.0,-100.00,NNE,30,2.0,3.0,55,-99.99,,,-99.99,,2013-01-16 02:23:00,
2013-01-15 21:33:00,36.0,22.0,-100.00,NNE,25,1.0,3.0,55,-99.99,,,-99.99,,2013-01-16 02:33:00,
2013-01-15 21:43:00,36.0,22.0,-100.00,NNE,30,2.0,4.0,55,-99.99,,,-99.99,,2013-01-16 02:43:00,
2013-01-15 21:53:00,36.0,22.0,-100.00,NNE,30,2.0,4.0,55,-99.99,,,-99.99,,2013-01-16 02:53:00,
2013-01-15 22:03:00,36.0,22.0,-100.00,NE,55,3.0,5.0,55,-99.99,,,-99.99,,2013-01-16 03:03:00,
2013-01-15 22:12:00,36.0,21.0,-100.00,NE,55,3.0,8.0,54,-99.99,,,-99.99,,2013-01-16 03:12:00,
2013-01-15 22:22:00,36.0,21.0,-100.00,NE,55,3.0,8.0,54,-99.99,,,-99.99,,2013-01-16 03:22:00,
2013-01-15 22:33:00,36.0,21.0,-100.00,East,85,5.0,7.0,53,-99.99,,,-99.99,,2013-01-16 03:33:00,
2013-01-15 22:43:00,36.0,20.0,-100.00,East,90,3.0,6.0,52,-99.99,,,-99.99,,2013-01-16 03:43:00,
2013-01-15 22:52:00,36.0,20.0,-100.00,NE,45,3.0,6.0,52,-99.99,,,-99.99,,2013-01-16 03:52:00,
2013-01-15 23:02:00,36.0,20.0,-100.00,NE,45,3.0,6.0,52,-99.99,,,-99.99,,2013-01-16 04:02:00,
2013-01-15 23:12:00,36.0,21.0,-100.00,NNE,25,3.0,7.0,54,-99.99,,,-99.99,,2013-01-16 04:12:00,
2013-01-15 23:22:00,36.0,21.0,-100.00,NNE,25,3.0,7.0,54,-99.99,,,-99.99,,2013-01-16 04:22:00,
2013-01-15 23:33:00,35.0,22.0,-100.00,North,0,3.0,6.0,57,-99.99,,,-99.99,,2013-01-16 04:33:00,
2013-01-15 23:42:00,35.0,22.0,-100.00,NNE,30,3.0,6.0,60,-99.99,,,-99.99,,2013-01-16 04:42:00,
2013-01-15 23:52:00,35.0,22.0,-100.00,NNE,30,3.0,6.0,60,-99.99,,,-99.99,,2013-01-16 04:52:00,